[[{"header":{"parameterUnit":"m.s-1","parameterCategory":1,"la1":30.2991,"la2":30.254,"lo1":-89.0895,"lo2":-89.0444,"dy":0.0017,"dx":0.0017,"nx":28,"ny":28,"refTime":"2025-05-26T03:00:00:Z","depth":0,"parameterNumber":2,"parameterNumberName":"U-component_of_WINDS"},"data":[0,0,0,0,0,0,0,0,0,0,0,0,0,0,0,0,0,0,0,0,0,0,0,0,0,0,0,0,0,0,0,0,0,0,0,0,0,0,0,0,0,0,0,0,0,0,0,0,0,0,0,0,0,0,0,0,0,0,0.6859,0.6859,0,0.6899,0.6899,0.69,0.6899,0.6899,0.6898,0.6898,0.6936,0.6938,0.6939,0,0,0,0,0,0,0,0,0,0,0,0,0,0.6777,0.6779,0.6858,0.6859,0.686,0.6899,0.6899,0.69,0.6899,0.6899,0.6898,0.6897,0.6936,0.6938,0.6939,0,0,0,0,0,0,0,0,0,0,0,0,0,0.6815,0.6779,0.6858,0.6864,0.6865,0.6899,0.6899,0.69,0.6899,0.6899,0.6898,0.6897,0.6935,0.6937,0.694,0.697,0,0,0.6947,0.6948,0,0,0,0,0,0,0,0,0.6813,0.6818,0.6863,0.6864,0.6865,0.6893,0.6885,0.6923,0.69,0.6886,0.6898,0.6897,0.6922,0.6926,0.6935,0.6972,0.6973,0.6947,0.6948,0.6949,0.695,0,0,0,0,0,0,0,0.681,0.6816,0.6874,0.6863,0.6865,0.6863,0.6868,0.6892,0.6908,0.6887,0.6887,0.6892,0.6923,0.6933,0.6936,0.6974,0.6947,0.6949,0.695,0.6951,0.7036,0.7037,0,0,0,0,0,0,0.6807,0.6814,0.6873,0.6876,0.6836,0.6865,0.687,0.6885,0.6908,0.6911,0.6893,0.6892,0.6929,0.6933,0.6937,0.6973,0.6949,0.6951,0.6953,0.7035,0.7036,0.7037,0,0,0,0,0,0,0.6805,0.6812,0.6871,0.6845,0.6852,0.6868,0.6884,0.6886,0.6896,0.6912,0.6915,0.69,0.6929,0.6934,0.6962,0.6975,0.6952,0.6955,0.7034,0.7035,0.7037,0.7046,0,0,0,0,0,0,0.6803,0.6811,0.6824,0.6845,0.6854,0.6896,0.6885,0.6887,0.69,0.69,0.692,0.6922,0.6929,0.6958,0.6964,0.6977,0.6956,0.7033,0.7035,0.7036,0.7044,0.7047,0.705,0,0,0,0,0,0.68,0.6824,0.6824,0.6832,0.687,0.6897,0.6902,0.6909,0.6901,0.6913,0.6924,0.6922,0.6972,0.6961,0.6967,0.6982,0.7032,0.7034,0.7036,0.7043,0.7047,0.705,0,0,0,0,0,0,0.6803,0.6827,0.6828,0.686,0.6877,0.6897,0.6912,0.6913,0.6931,0.6929,0.6937,0.6941,0.6969,0.6978,0.6965,0.7011,0.7001,0.7004,0.7004,0.7008,0.7011,0.7007,0.6958,0,0,0,0,0,0.6808,0.683,0.6849,0.6876,0.6884,0.6897,0.6909,0.6913,0.693,0.6937,0.6949,0.6965,0.6984,0.6996,0.7015,0.7046,0.705,0.7059,0.7061,0.7064,0.7066,0.7082,0.7086,0.7044,0.7043,0.7043,0,0,0.6818,0.6834,0.6847,0.6877,0.689,0.6911,0.6903,0.6925,0.694,0.694,0.6967,0.6976,0.6994,0.7023,0.7036,0.7032,0.7079,0.7066,0.7068,0.7069,0.7084,0.7088,0.7092,0.7045,0.7045,0.7044,0,0,0.6846,0.6861,0.6884,0.6898,0.6918,0.6927,0.6932,0.6952,0.6959,0.6986,0.6986,0.7003,0.7037,0.7049,0.706,0.7092,0.7091,0.7098,0.7112,0.7127,0.713,0.7133,0.7144,0.7148,0.7101,0.7101,0.7101,0,0.6855,0.6888,0.6896,0.6919,0.6931,0.6933,0.6956,0.6968,0.6993,0.7002,0.6996,0.7038,0.705,0.7081,0.7089,0.7098,0.7104,0.7096,0.7129,0.7132,0.7135,0.7145,0.7149,0.7101,0.7101,0.7101,0.7101,0,0.6898,0.692,0.6936,0.6961,0.6976,0.6998,0.7009,0.7022,0.7025,0.7034,0.706,0.7075,0.7097,0.7104,0.7107,0.7136,0.7132,0.7128,0.7118,0.714,0.7149,0.7153,0.7102,0.7102,0.7102,0.7102,0,0,0.6929,0.6958,0.6964,0.6975,0.6998,0.7014,0.7036,0.7058,0.7069,0.7086,0.7104,0.7132,0.7128,0.714,0.7144,0.7158,0.7181,0.7152,0.7152,0.7156,0.7212,0.7215,0.7219,0.718,0.7181,0.7182,0.721,0,0.6959,0.7,0.7007,0.7042,0.7062,0.7064,0.7083,0.7098,0.7106,0.7123,0.7132,0.7151,0.7145,0.7152,0.7166,0.7175,0.7192,0.7173,0.7196,0.7196,0.7191,0.7224,0.7227,0.7254,0.7214,0.7215,0.7215,0,0.6999,0.7018,0.7055,0.7074,0.7083,0.71,0.712,0.7137,0.7153,0.7158,0.7172,0.7174,0.7196,0.7185,0.7214,0.7201,0.7211,0.7216,0.7218,0.7219,0.7207,0.7226,0.7262,0.7266,0.7222,0.7221,0.7221,0,0.7018,0.7052,0.7078,0.7088,0.7111,0.7123,0.7133,0.7149,0.7161,0.7178,0.7186,0.7205,0.7215,0.7229,0.7236,0.7228,0.7265,0.7254,0.7268,0.7268,0.7275,0.7275,0.7313,0.7283,0.7283,0.7283,0.7283,0,0.705,0.7072,0.7087,0.7103,0.7127,0.7136,0.7159,0.7169,0.7183,0.72,0.7202,0.7218,0.7227,0.7243,0.7249,0.7271,0.7276,0.728,0.7281,0.7279,0.7279,0.7285,0.7283,0.7284,0.7284,0.7283,0.7283,0,0.7074,0.7085,0.7114,0.7133,0.7139,0.7156,0.7172,0.7187,0.7195,0.7217,0.7222,0.7235,0.7254,0.7263,0.7287,0.729,0.7316,0.7316,0.7311,0.7311,0.7324,0.7322,0.7367,0.7373,0.734,0.734,0.734,0,0.7093,0.711,0.7132,0.7144,0.7155,0.7174,0.7187,0.7195,0.7208,0.7228,0.724,0.726,0.7276,0.7307,0.7318,0.7336,0.7336,0.735,0.7338,0.7336,0.7335,0.7334,0.7335,0.7352,0.7352,0.7353,0.7353,0,0.7126,0.7131,0.7149,0.717,0.7185,0.7201,0.7217,0.7227,0.7237,0.7251,0.7272,0.7285,0.7309,0.7328,0.7347,0.7356,0.7356,0.7357,0.7361,0.7359,0.7355,0.7356,0.7316,0.7355,0.7355,0.7355,0.7355,0.7355,0.7148,0.7163,0.7181,0.7201,0.7214,0.7229,0.7244,0.7254,0.7272,0.7293,0.7296,0.7318,0.7333,0.7358,0.7368,0.7384,0.738,0.7386,0.7388,0.7389,0.7389,0.7353,0.7387,0.7387,0.7387,0.7387,0.7387,0,0.718,0.7192,0.721,0.7233,0.7249,0.7248,0.7266,0.7278,0.7298,0.7313,0.7329,0.7352,0.737,0.7382,0.74,0.7411,0.7411,0.7415,0.7414,0.7416,0.7392,0.7386,0.7415,0.7415,0.7415,0.7415,0.7415,0.7415,0.7199,0.7224,0.7231,0.7262,0.7273,0.7295,0.7304,0.7317,0.7329,0.7355,0.7371,0.7379,0.7392,0.7411,0.7428,0.7431,0.7437,0.7441,0.7444,0.7421,0.7418,0.7415,0.741,0.7443,0.7443,0.7466,0.7467,0.7467]},{"header":{"parameterUnit":"m.s-1","parameterCategory":1,"la1":30.2991,"la2":30.254,"lo1":-89.0895,"lo2":-89.0444,"dy":0.0017,"dx":0.0017,"nx":28,"ny":28,"refTime":"2025-05-26T03:00:00:Z","depth":0,"parameterNumber":3,"parameterNumberName":"V-component_of_WINDS"},"data":[0,0,0,0,0,0,0,0,0,0,0,0,0,0,0,0,0,0,0,0,0,0,0,0,0,0,0,0,0,0,0,0,0,0,0,0,0,0,0,0,0,0,0,0,0,0,0,0,0,0,0,0,0,0,0,0,0,0,4.9951,4.995,0,4.9832,4.9831,4.9829,4.9727,4.9726,4.9724,4.9723,4.9594,4.9591,4.9589,0,0,0,0,0,0,0,0,0,0,0,0,0,5.0085,5.0083,4.9951,4.995,4.9948,4.9832,4.9831,4.9829,4.9727,4.9726,4.9724,4.9723,4.9595,4.9592,4.9589,0,0,0,0,0,0,0,0,0,0,0,0,0,5.0003,5.0083,4.9952,4.9884,4.9876,4.9833,4.9831,4.9829,4.9727,4.9726,4.9724,4.9722,4.9595,4.9592,4.9588,4.96,0,0,4.9577,4.9576,0,0,0,0,0,0,0,0,5.0007,4.9998,4.9895,4.9888,4.988,4.9793,4.983,4.9752,4.9728,4.9784,4.9723,4.9721,4.9661,4.9652,4.9633,4.9594,4.9588,4.9577,4.9575,4.9573,4.9572,0,0,0,0,0,0,0,5.0013,5.0002,4.9904,4.9894,4.9885,4.9857,4.9844,4.9815,4.9733,4.9779,4.9771,4.9759,4.9656,4.9637,4.9629,4.9586,4.9577,4.9574,4.9572,4.957,4.9552,4.9554,0,0,0,0,0,0,5.003,5.0008,4.9908,4.99,4.9941,4.9856,4.9841,4.9822,4.9733,4.9718,4.976,4.9754,4.9644,4.9633,4.9624,4.9632,4.9573,4.957,4.9568,4.955,4.9552,4.9554,0,0,0,0,0,0,5.0034,5.0022,4.9912,4.9952,4.9936,4.9856,4.9836,4.9821,4.9801,4.9719,4.9703,4.9756,4.9642,4.9629,4.9607,4.9626,4.9568,4.9565,4.9548,4.9551,4.9553,4.9649,0,0,0,0,0,0,5.0038,5.0024,5.0029,4.9953,4.9934,4.99,4.9837,4.982,4.9796,4.9787,4.9711,4.9696,4.9639,4.9614,4.9604,4.962,4.9562,4.9546,4.955,4.9552,4.9644,4.9655,4.9664,0,0,0,0,0,5.0043,5.0059,5.003,5.0018,4.9939,4.9901,4.989,4.9827,4.9798,4.9801,4.9749,4.9698,4.9626,4.9612,4.96,4.9616,4.9545,4.9549,4.9552,4.9639,4.9653,4.9664,0,0,0,0,0,0,5.0136,5.0047,5.0014,5.0006,4.9963,4.9884,4.9886,4.9843,4.9804,4.9797,4.9718,4.9702,4.9689,4.965,4.9636,4.9623,4.9579,4.958,4.9649,4.9661,4.9671,4.968,4.9559,0,0,0,0,0,5.0156,5.0135,5.0058,5.0058,5.0038,4.9967,4.9948,4.9903,4.9854,4.9834,4.9779,4.9732,4.9698,4.9677,4.9641,4.9638,4.962,4.9643,4.9653,4.9662,4.9664,4.966,4.967,4.9567,4.9567,4.9566,0,0,5.0196,5.0145,5.0136,5.0076,5.0036,5.0015,4.9951,4.9931,4.9914,4.9829,4.9807,4.9766,4.9707,4.9695,4.9687,4.9662,4.9689,4.9667,4.9674,4.9671,4.9665,4.9675,4.9684,4.9569,4.9569,4.9568,0,0,5.0258,5.0218,5.0215,5.0178,5.012,5.0073,5.0073,5.0001,4.9972,4.9949,4.9886,4.9863,4.9807,4.9768,4.9741,4.9792,4.9744,4.9782,4.9833,4.9831,4.9839,4.9846,4.9864,4.9871,4.9784,4.9785,4.9785,0,5.0314,5.0282,5.0217,5.0202,5.0177,5.0104,5.0099,5.0065,4.9998,4.9982,4.9956,4.9886,4.9841,4.9819,4.9832,4.9813,4.9809,4.979,4.9843,4.9849,4.9855,4.9871,4.9878,4.979,4.9789,4.9789,4.9788,0,5.0354,5.0332,5.0336,5.0277,5.0253,5.0242,5.0175,5.0158,5.0116,5.0072,5.0049,4.9993,4.9946,4.9937,4.9895,4.991,4.9897,4.9859,4.9812,4.9871,4.9885,4.9891,4.9797,4.9795,4.9794,4.9792,0,0,5.0469,5.0377,5.038,5.0353,5.0285,5.0266,5.0253,5.021,5.0197,5.0153,5.0139,5.0095,5.006,5.0029,4.9982,4.998,5.0025,4.9941,4.9939,4.9959,5.0038,5.0068,5.0076,4.9993,4.9994,4.9995,5.0043,0,5.052,5.0494,5.0437,5.0428,5.0408,5.0339,5.0327,5.0284,5.0242,5.0217,5.0169,5.014,5.0096,5.0077,5.0072,5.0021,5.0039,5.0016,4.9978,4.9977,4.9995,5.0083,5.0114,5.0162,5.0048,5.0049,5.005,0,5.0575,5.054,5.0531,5.0467,5.0456,5.0447,5.0403,5.0381,5.033,5.03,5.0268,5.0217,5.0198,5.0157,5.0129,5.0114,5.0095,5.0068,5.0068,5.0062,5.0017,5.0079,5.0176,5.0184,5.0058,5.0057,5.0057,0,5.0661,5.0611,5.0599,5.0578,5.0503,5.0498,5.0466,5.0414,5.0393,5.0354,5.0339,5.0298,5.0275,5.0244,5.0183,5.0159,5.0162,5.0115,5.0135,5.0137,5.0138,5.0139,5.0234,5.0127,5.0127,5.0127,5.0127,0,5.0723,5.072,5.0637,5.0629,5.0624,5.0558,5.0553,5.0515,5.047,5.0453,5.039,5.0375,5.0295,5.0271,5.0223,5.0207,5.0197,5.0171,5.0159,5.0177,5.018,5.0163,5.0158,5.0129,5.0128,5.0128,5.0128,0,5.0817,5.0761,5.0744,5.0676,5.0658,5.0657,5.0598,5.0588,5.0544,5.0523,5.0514,5.0444,5.0412,5.0349,5.0298,5.0266,5.0261,5.0238,5.0279,5.0271,5.0295,5.0294,5.0381,5.0389,5.0279,5.028,5.0281,0,5.086,5.0857,5.079,5.0775,5.0747,5.0724,5.0703,5.0638,5.0618,5.0562,5.0558,5.0522,5.049,5.0442,5.0385,5.0346,5.0322,5.0355,5.0315,5.0335,5.0322,5.0324,5.0323,5.0364,5.0366,5.0367,5.0368,0,5.0943,5.0917,5.089,5.0854,5.0831,5.0799,5.0763,5.0754,5.0681,5.0661,5.063,5.0605,5.0556,5.052,5.0474,5.0438,5.0391,5.0382,5.0384,5.0402,5.0426,5.0414,5.0303,5.0379,5.0378,5.0377,5.0377,5.0376,5.1013,5.1007,5.096,5.0932,5.09,5.0868,5.0856,5.0812,5.0785,5.0742,5.0705,5.0677,5.0627,5.0561,5.0529,5.0505,5.0482,5.0485,5.0486,5.0488,5.0496,5.0431,5.0496,5.0495,5.0495,5.0495,5.0494,0,5.1093,5.106,5.1036,5.0989,5.0968,5.0929,5.0887,5.0871,5.0848,5.0808,5.0778,5.0742,5.0709,5.0651,5.0612,5.0604,5.0581,5.0595,5.0595,5.0588,5.0518,5.052,5.0615,5.0615,5.0615,5.0615,5.0615,5.0615,5.1132,5.1121,5.1089,5.1061,5.1027,5.1002,5.0982,5.0952,5.092,5.0884,5.0857,5.082,5.0772,5.073,5.0697,5.0681,5.0669,5.0691,5.0668,5.0604,5.0592,5.0582,5.0583,5.0689,5.0689,5.0738,5.0739,5.0739]}]]